Starlink 32782

operational
NORAD ID: 62821 Int'l Des: 2025-018 Owner: SPXS Country: US Constellation: starlink
LEOCIRCULAR

关于 Starlink 32782

正在加载描述...

实时位置

正在加载3D地球...

即将过境

高度历史

Altitude vs Time

uPlot chart will show altitude changes over time

两行轨道根数

1 62821U 25018R 26034.48703813 .00028875 00000-0 98411-3 0 9990
2 62821 53.1579 108.3397 0001287 81.2331 278.8815 15.30171578 57940
Epoch: Feb 3, 2026 • Age: 14 hours

当前状态

高度 477.6 km
速度 7.63 km/s
星下点 37.72°N, 23.69°W
发射日期 Jan 24, 2025
运行时间 1 years
类型 internet

技术详情

分类 Payload
质量 730.00 kg
干质量 700.00 kg
总质量 730.00 kg
长度 0.30 m
直径 4.10 m
跨度 29.00 m
形状 Box + pan
制造商 SPXS
平台类型 Starlink V2M
阶段状态 In Orbit
所有者/国家 SPXS/US

大型星座

Loading constellations...